User: anonymous
Location: La Vergne
(36.0160°N, 86.5820°W)
Time: 23:24:02
(UTC-05:00)
Language:

Cosmos 1703 Rocket - Orbit

View from above orbital plane
View from above orbital plane
View from above satellite
View from above satellite

Ground track
Ground track

The orbit data is extracted from the following two-line orbital elements,

1 16263U 85108B   14274.10702182  .00000520  00000-0  61705-4 0  7830
2 16263 082.5038 322.9028 0020119 012.7877 046.6826 14.82478473557666
Epoch (UTC): 01 October 2014 02:34:06
Eccentricity: 0.0020119
inclination: 82.5038°
perigee height: 607 km
apogee height: 635 km
right ascension of ascending node: 322.9028°
argument of perigee: 12.7877°
revolutions per day: 14.82478473
mean anomaly at epoch: 46.6826°
orbit number at epoch: 55766

The dashed part of the orbit path shows where the satellite is in the earth's shadow,  

DLR